Change the Weather History Date:

Friday, October 19, 2012

  Actual Average Record
Temperature  
Mean Temperature 57 °F -  
Max Temperature 64 °F 57 °F 84 °F (2014)
Min Temperature 50 °F 41 °F 33 °F (2010)
Degree Days  
Heating Degree Days 8    
Growing Degree Days 7 (Base 50)    
Moisture  
Dew Point 51 °F    
Average Humidity 89    
Maximum Humidity 100    
Minimum Humidity 63    
Precipitation  
Precipitation 0.00 in - - ()
Sea Level Pressure  
Sea Level Pressure 29.77 in    
Wind  
Wind Speed 5 mph ()    
Max Wind Speed 15 mph    
Max Gust Speed 26 mph    
Visibility 5.7 miles    
Events Rain , Thunderstorm    
Averages and records for this station are not official NWS values.
T = Trace of Precipitation, MM = Missing Value Source: Averaged Metar Reports

Daily Weather History Graph

Daily Weather History Graph

Search for Another Location

Airport or City:

Trip Planner

Search our weather history database for the weather conditions in past years. The results will help you decide how hot, cold, wet, or windy it might be!

Date:

Astronomy

Oct. 19, 2012 Rise Set
Actual Time 8:29 AM CEST 7:21 PM CEST
Civil Twilight 8:00 AM CEST 7:50 PM CEST
Nautical Twilight 7:27 AM CEST 8:23 PM CEST
Astronomical Twilight 6:54 AM CEST 8:55 PM CEST
Moon 1:03 PM CEST (10/19) 10:38 PM CEST (10/19)
Length of Visible Light 11h 49m
Length of Day
10h 52m
Waxing Crescent, 21% of the Moon is Illuminated
Oct 19
Waxing Crescent
Oct 22
First Quarter
Oct 29
Full
Nov 7
Last Quarter
Nov 13
New

Hourly Weather History & Observations

Time (CEST) Temp. Dew Point Humidity Pressure Visibility Wind Dir Wind Speed Gust Speed Precip Events Conditions
12:00 AM 59.0 °F 53.6 °F 82% 29.62 in 6.2 mi NNE 11.5 mph - N/A   Mostly Cloudy
12:30 AM 57.2 °F 53.6 °F 88% 29.62 in 6.2 mi NE 5.8 mph - N/A   Mostly Cloudy
1:30 AM 64.4 °F 57.2 °F 77% 29.62 in 6.2 mi SE 10.4 mph 26.5 mph N/A   Mostly Cloudy
2:00 AM 64.4 °F 57.2 °F 77% 29.62 in 6.2 mi SE 15.0 mph - N/A   Mostly Cloudy
2:30 AM 64.4 °F 53.6 °F 68% 29.62 in 6.2 mi South 8.1 mph - N/A   Mostly Cloudy
3:00 AM 55.4 °F 53.6 °F 94% 29.62 in 5.6 mi WNW 12.7 mph - N/A Rain Rain
3:30 AM 53.6 °F 51.8 °F 94% 29.65 in 5.6 mi WNW 12.7 mph - N/A Thunderstorm Thunderstorm
4:00 AM 55.4 °F 53.6 °F 94% 29.65 in 4.3 mi Variable 2.3 mph - N/A Rain Rain
4:30 AM 59.0 °F 53.6 °F 82% 29.65 in 4.3 mi South 9.2 mph - N/A Rain Rain
5:00 AM 55.4 °F 53.6 °F 94% 29.62 in 5.6 mi NNE 6.9 mph - N/A Rain Rain
5:30 AM 55.4 °F 53.6 °F 94% 29.62 in 5.6 mi Calm Calm - N/A Rain Rain
6:00 AM 55.4 °F 53.6 °F 94% 29.62 in 5.6 mi Variable 2.3 mph - N/A Rain Rain
6:30 AM 55.4 °F 53.6 °F 94% 29.62 in 5.6 mi Variable 1.2 mph - N/A Rain Rain
7:00 AM 53.6 °F 51.8 °F 94% 29.65 in 6.2 mi Calm Calm - N/A   Overcast
7:30 AM 51.8 °F 50.0 °F 94% 29.65 in 6.2 mi WNW 8.1 mph - N/A   Overcast
8:00 AM 51.8 °F 50.0 °F 94% 29.68 in 6.2 mi Variable 2.3 mph - N/A Rain Rain
8:30 AM 50.0 °F 50.0 °F 100% 29.71 in 4.3 mi Calm Calm - N/A Rain Rain
9:00 AM 50.0 °F 50.0 °F 100% 29.71 in 3.7 mi Variable 2.3 mph - N/A Rain Rain
9:30 AM 50.0 °F 50.0 °F 100% 29.74 in 5.6 mi Variable 2.3 mph - N/A Rain Rain
10:00 AM 50.0 °F 50.0 °F 100% 29.77 in 3.1 mi West 5.8 mph - N/A Rain Rain
10:30 AM 50.0 °F 50.0 °F 100% 29.77 in 3.1 mi Calm Calm - N/A Rain Rain
11:00 AM 50.0 °F 50.0 °F 100% 29.80 in 3.7 mi Variable 2.3 mph - N/A Rain Rain
11:30 AM 51.8 °F 50.0 °F 94% 29.80 in 5.6 mi Variable 1.2 mph - N/A   Overcast
12:00 PM 51.8 °F 50.0 °F 94% 29.80 in 6.2 mi Calm Calm - N/A   Overcast
12:30 PM 51.8 °F 50.0 °F 94% 29.80 in 6.2 mi Variable 2.3 mph - N/A   Overcast
1:00 PM 53.6 °F 50.0 °F 88% 29.83 in 6.2 mi Calm Calm - N/A   Overcast
1:30 PM 53.6 °F 50.0 °F 88% 29.83 in 6.2 mi Calm Calm - N/A   Overcast
2:00 PM 53.6 °F 48.2 °F 82% 29.80 in 6.2 mi SSW 3.5 mph - N/A   Overcast
2:30 PM 55.4 °F 48.2 °F 77% 29.83 in 6.2 mi SW 4.6 mph - N/A   Mostly Cloudy
3:00 PM 55.4 °F 46.4 °F 72% 29.83 in 6.2 mi Variable 2.3 mph - N/A   Mostly Cloudy
3:30 PM 55.4 °F 46.4 °F 72% 29.80 in 6.2 mi Calm Calm - N/A   Mostly Cloudy
4:00 PM 55.4 °F 46.4 °F 72% 29.80 in 6.2 mi Variable 1.2 mph - N/A   Scattered Clouds
4:30 PM 57.2 °F 44.6 °F 63% 29.83 in 6.2 mi Calm Calm - N/A   Scattered Clouds
5:00 PM 55.4 °F 48.2 °F 77% 29.83 in 6.2 mi Calm Calm - N/A   Scattered Clouds
5:30 PM 55.4 °F 48.2 °F 77% 29.83 in 6.2 mi NE 3.5 mph - N/A   Scattered Clouds
6:00 PM 53.6 °F 50.0 °F 88% 29.83 in 6.2 mi NNE 6.9 mph - N/A   Scattered Clouds
6:30 PM 53.6 °F 50.0 °F 88% 29.86 in 6.2 mi NNE 5.8 mph - N/A   Scattered Clouds
7:00 PM 53.6 °F 50.0 °F 88% 29.86 in 6.2 mi North 4.6 mph - N/A   Scattered Clouds
7:30 PM 51.8 °F 50.0 °F 94% 29.86 in 6.2 mi NNE 4.6 mph - N/A   Scattered Clouds
8:00 PM 51.8 °F 50.0 °F 94% 29.89 in 6.2 mi NE 3.5 mph - N/A   Scattered Clouds
8:30 PM 51.8 °F 50.0 °F 94% 29.89 in 6.2 mi NE 2.3 mph - N/A   Scattered Clouds
9:00 PM 51.8 °F 50.0 °F 94% 29.92 in 6.2 mi NE 2.3 mph - N/A   Scattered Clouds
9:30 PM 51.8 °F 50.0 °F 94% 29.92 in 6.2 mi NNE 2.3 mph - N/A   Scattered Clouds
10:00 PM 51.8 °F 50.0 °F 94% 29.92 in 6.2 mi NNE 3.5 mph - N/A   Scattered Clouds
10:30 PM 51.8 °F 50.0 °F 94% 29.92 in 6.2 mi North 2.3 mph - N/A   Scattered Clouds
11:00 PM 50.0 °F 50.0 °F 100% 29.92 in 6.2 mi Calm Calm - N/A   Scattered Clouds
11:30 PM 50.0 °F 50.0 °F 100% 29.95 in 6.2 mi NE 1.2 mph - N/A   Scattered Clouds